RYR7828 LEPA-LEZL

Flight info

Callsign RYR7828
Flight time 1h 9m
Altitude 37000
Route EPAMA N733 VLC M985 MAMIS
Aircraft A320/M-SDE3FGHIRWY/LB1

Departure

Time 2026-04-16 23:11
Airport Palma de Mallorca Airport (LEPA)

Arrival

Time 2026-04-17 00:21
Airport Seville Airport (LEZL)
Time Latitude Longitude Altitude Speed Heading
2026-04-16 22:44 39.54557 2.73326 30 ft 0 kts 346°
2026-04-16 23:00 39.54556 2.73326 30 ft 2 kts 346°
2026-04-16 23:00 39.54531 2.73334 30 ft 4 kts 346°
2026-04-16 23:00 39.54508 2.73338 30 ft 4 kts 28°
2026-04-16 23:01 39.54492 2.73317 30 ft 4 kts 58°
2026-04-16 23:01 39.54484 2.73301 30 ft 0 kts 58°
2026-04-16 23:03 39.54487 2.73307 30 ft 3 kts 59°
2026-04-16 23:03 39.54512 2.73361 30 ft 10 kts 59°
2026-04-16 23:03 39.54552 2.73446 30 ft 12 kts 58°
2026-04-16 23:04 39.54604 2.73552 30 ft 15 kts 55°
2026-04-16 23:04 39.54666 2.73679 30 ft 18 kts 61°
2026-04-16 23:04 39.54732 2.73825 30 ft 20 kts 58°
2026-04-16 23:04 39.54791 2.73950 30 ft 3 kts 58°
2026-04-16 23:05 39.54793 2.73953 30 ft 1 kts 58°
2026-04-16 23:05 39.54803 2.73972 30 ft 4 kts 54°
2026-04-16 23:05 39.54829 2.74001 30 ft 6 kts 23°
2026-04-16 23:06 39.54874 2.73982 30 ft 8 kts 328°
2026-04-16 23:06 39.54928 2.73965 30 ft 8 kts 27°
2026-04-16 23:06 39.54960 2.74006 30 ft 7 kts 19°
2026-04-16 23:06 39.55012 2.73985 30 ft 9 kts 329°
2026-04-16 23:07 39.55074 2.73933 30 ft 12 kts 328°
2026-04-16 23:07 39.55155 2.73871 30 ft 15 kts 329°
2026-04-16 23:07 39.55252 2.73795 30 ft 18 kts 327°
2026-04-16 23:07 39.55360 2.73709 30 ft 16 kts 329°
2026-04-16 23:08 39.55454 2.73634 30 ft 16 kts 329°
2026-04-16 23:08 39.55541 2.73566 30 ft 14 kts 327°
2026-04-16 23:08 39.55611 2.73511 30 ft 9 kts 329°
2026-04-16 23:08 39.55667 2.73524 30 ft 10 kts 54°
2026-04-16 23:09 39.55710 2.73614 30 ft 13 kts 58°
2026-04-16 23:09 39.55763 2.73727 30 ft 16 kts 59°
2026-04-16 23:09 39.55825 2.73859 30 ft 16 kts 58°
2026-04-16 23:09 39.55899 2.73899 30 ft 14 kts 329°
2026-04-16 23:10 39.55989 2.73825 30 ft 15 kts 326°
2026-04-16 23:10 39.55973 2.73721 30 ft 15 kts 238°
2026-04-16 23:10 39.55842 2.73444 30 ft 69 kts 239°
2026-04-16 23:10 39.55479 2.72677 30 ft 128 kts 238°
2026-04-16 23:11 39.54942 2.71530 141 ft 161 kts 239°
2026-04-16 23:11 39.54363 2.70316 759 ft 157 kts 238°
2026-04-16 23:11 39.53768 2.69132 1402 ft 156 kts 235°
2026-04-16 23:11 39.53167 2.67966 2037 ft 155 kts 233°
2026-04-16 23:12 39.52545 2.66765 2438 ft 170 kts 234°
2026-04-16 23:12 39.51876 2.65465 2694 ft 191 kts 235°
2026-04-16 23:12 39.51070 2.63887 3015 ft 213 kts 236°
2026-04-16 23:12 39.50239 2.62259 3684 ft 219 kts 237°
2026-04-16 23:13 39.49396 2.60603 4439 ft 223 kts 237°
2026-04-16 23:13 39.48533 2.58909 5168 ft 228 kts 237°
2026-04-16 23:13 39.47654 2.57179 5895 ft 232 kts 238°
2026-04-16 23:13 39.46759 2.55418 6634 ft 236 kts 238°
2026-04-16 23:14 39.45847 2.53626 7342 ft 240 kts 238°
2026-04-16 23:14 39.45096 2.51683 7896 ft 250 kts 263°
2026-04-16 23:14 39.45275 2.49417 8220 ft 265 kts 295°
2026-04-16 23:14 39.46011 2.47164 8794 ft 278 kts 290°
2026-04-16 23:15 39.46972 2.42246 10395 ft 287 kts 285°
2026-04-16 23:15 39.47372 2.39602 10639 ft 311 kts 283°
2026-04-16 23:15 39.47764 2.36754 10914 ft 330 kts 282°
2026-04-16 23:16 39.48149 2.33794 11499 ft 337 kts 282°
2026-04-16 23:16 39.48534 2.30785 12163 ft 341 kts 282°
2026-04-16 23:16 39.48921 2.27740 12846 ft 345 kts 282°
2026-04-16 23:16 39.49312 2.24657 13533 ft 349 kts 282°
2026-04-16 23:17 39.49711 2.21543 14169 ft 353 kts 282°
2026-04-16 23:17 39.50121 2.18396 14762 ft 356 kts 282°
2026-04-16 23:17 39.50538 2.15214 15358 ft 360 kts 282°
2026-04-16 23:17 39.50958 2.12009 15954 ft 363 kts 282°
2026-04-16 23:18 39.51380 2.08775 16547 ft 366 kts 282°
2026-04-16 23:18 39.51802 2.05513 17140 ft 369 kts 282°
2026-04-16 23:18 39.52229 2.02215 17736 ft 373 kts 282°
2026-04-16 23:18 39.52659 1.98892 18331 ft 376 kts 282°
2026-04-16 23:19 39.53091 1.95536 18881 ft 379 kts 282°
2026-04-16 23:19 39.53528 1.92155 19438 ft 382 kts 282°
2026-04-16 23:19 39.53965 1.88745 20019 ft 384 kts 282°
2026-04-16 23:19 39.54400 1.85318 20608 ft 387 kts 282°
2026-04-16 23:20 39.54835 1.81869 21170 ft 389 kts 282°
2026-04-16 23:20 39.55270 1.78394 21722 ft 392 kts 281°
2026-04-16 23:20 39.55707 1.74893 22250 ft 395 kts 281°
2026-04-16 23:20 39.56155 1.71316 22776 ft 398 kts 281°
2026-04-16 23:21 39.56594 1.67814 23282 ft 401 kts 281°
2026-04-16 23:21 39.57044 1.64240 23777 ft 403 kts 281°
2026-04-16 23:21 39.57496 1.60642 24189 ft 406 kts 281°
2026-04-16 23:21 39.57948 1.57020 24609 ft 409 kts 281°
2026-04-16 23:22 39.58406 1.53376 24994 ft 411 kts 281°
2026-04-16 23:22 39.58868 1.49706 25397 ft 413 kts 281°
2026-04-16 23:22 39.59328 1.46024 25794 ft 415 kts 281°
2026-04-16 23:22 39.59789 1.42318 26170 ft 418 kts 281°
2026-04-16 23:23 39.60176 1.38574 26533 ft 422 kts 275°
2026-04-16 23:23 39.60133 1.34750 26885 ft 426 kts 268°
2026-04-16 23:23 39.59916 1.30909 27243 ft 429 kts 268°
2026-04-16 23:23 39.59702 1.27044 27598 ft 431 kts 268°
2026-04-16 23:24 39.59487 1.23156 27951 ft 434 kts 268°
2026-04-16 23:24 39.59267 1.19186 28301 ft 436 kts 268°
2026-04-16 23:24 39.59051 1.15305 28645 ft 439 kts 268°
2026-04-16 23:24 39.58829 1.11349 28986 ft 441 kts 268°
2026-04-16 23:25 39.58602 1.07371 29331 ft 444 kts 268°
2026-04-16 23:25 39.58372 1.03372 29663 ft 446 kts 267°
2026-04-16 23:25 39.58137 0.99343 29994 ft 449 kts 267°
2026-04-16 23:25 39.57899 0.95300 30308 ft 451 kts 267°
2026-04-16 23:26 39.57657 0.91245 30658 ft 451 kts 267°
2026-04-16 23:26 39.57412 0.87141 31057 ft 450 kts 267°
2026-04-16 23:26 39.57173 0.83148 31447 ft 450 kts 268°
2026-04-16 23:26 39.56928 0.79057 31852 ft 449 kts 268°
2026-04-16 23:27 39.56686 0.75027 32242 ft 448 kts 268°
2026-04-16 23:27 39.56443 0.71004 32651 ft 448 kts 268°
2026-04-16 23:27 39.56281 0.68337 32924 ft 447 kts 268°
2026-04-16 23:27 39.55953 0.63025 33473 ft 446 kts 268°
2026-04-16 23:28 39.55706 0.59025 33885 ft 445 kts 268°
2026-04-16 23:28 39.55459 0.55032 34285 ft 444 kts 268°
2026-04-16 23:28 39.55210 0.51042 34647 ft 443 kts 268°
2026-04-16 23:28 39.54960 0.47069 35006 ft 442 kts 268°
2026-04-16 23:29 39.54711 0.43107 35361 ft 441 kts 268°
2026-04-16 23:29 39.54462 0.39157 35705 ft 440 kts 268°
2026-04-16 23:29 39.54292 0.36495 35912 ft 439 kts 269°
2026-04-16 23:29 39.54039 0.32553 36231 ft 438 kts 269°
2026-04-16 23:30 39.53785 0.28628 36554 ft 437 kts 269°
2026-04-16 23:30 39.53529 0.24714 36870 ft 436 kts 269°
2026-04-16 23:30 39.53274 0.20809 37124 ft 435 kts 269°
2026-04-16 23:31 39.52765 0.13005 37176 ft 439 kts 269°
2026-04-16 23:31 39.52240 0.05065 37175 ft 440 kts 268°
2026-04-16 23:32 39.51709 -0.02834 37163 ft 440 kts 268°
2026-04-16 23:32 39.51182 -0.10657 37179 ft 439 kts 268°
2026-04-16 23:33 39.50648 -0.18525 37187 ft 439 kts 268°
2026-04-16 23:33 39.50106 -0.26404 37195 ft 439 kts 268°
2026-04-16 23:34 39.49556 -0.34282 37201 ft 440 kts 268°
2026-04-16 23:34 39.48993 -0.42166 37205 ft 440 kts 266°
2026-04-16 23:35 39.47257 -0.49805 37203 ft 449 kts 246°
2026-04-16 23:35 39.43745 -0.56535 37204 ft 454 kts 236°
2026-04-16 23:36 39.39927 -0.63047 37207 ft 454 kts 236°
2026-04-16 23:36 39.36112 -0.69559 37208 ft 455 kts 236°
2026-04-16 23:37 39.32311 -0.76029 37206 ft 455 kts 236°
2026-04-16 23:37 39.28451 -0.82560 37223 ft 454 kts 236°
2026-04-16 23:38 39.24617 -0.89028 37230 ft 453 kts 236°
2026-04-16 23:38 39.20794 -0.95496 37246 ft 453 kts 236°
2026-04-16 23:39 39.16993 -1.01901 37240 ft 452 kts 236°
2026-04-16 23:39 39.13142 -1.08374 37247 ft 452 kts 236°
2026-04-16 23:40 39.09310 -1.14797 37239 ft 452 kts 236°
2026-04-16 23:40 39.05487 -1.21210 37260 ft 451 kts 236°
2026-04-16 23:41 39.01691 -1.27561 37266 ft 450 kts 236°
2026-04-16 23:41 38.97843 -1.33969 37266 ft 450 kts 236°
2026-04-16 23:42 38.94045 -1.40286 37266 ft 449 kts 236°
2026-04-16 23:42 38.90227 -1.46632 37269 ft 449 kts 236°
2026-04-16 23:43 38.86403 -1.52979 37245 ft 449 kts 235°
2026-04-16 23:43 38.82584 -1.59296 37260 ft 448 kts 235°
2026-04-16 23:44 38.78774 -1.65600 37261 ft 447 kts 235°
2026-04-16 23:44 38.74969 -1.71878 37261 ft 446 kts 235°
2026-04-16 23:45 38.71156 -1.78144 37264 ft 446 kts 235°
2026-04-16 23:45 38.67348 -1.84397 37267 ft 445 kts 235°
2026-04-16 23:46 38.63540 -1.90646 37278 ft 445 kts 235°
2026-04-16 23:46 38.59728 -1.96876 37277 ft 445 kts 234°
2026-04-16 23:47 38.55910 -2.03095 37282 ft 444 kts 234°
2026-04-16 23:47 38.52098 -2.09305 37281 ft 444 kts 234°
2026-04-16 23:48 38.48292 -2.15506 37283 ft 444 kts 234°
2026-04-16 23:48 38.44500 -2.21660 37288 ft 444 kts 234°
2026-04-16 23:49 38.40680 -2.27838 37288 ft 444 kts 234°
2026-04-16 23:49 38.36859 -2.34013 37283 ft 443 kts 233°
2026-04-16 23:50 38.32708 -2.39816 37291 ft 443 kts 229°
2026-04-16 23:50 38.28471 -2.45507 37282 ft 443 kts 229°
2026-04-16 23:51 38.24235 -2.51192 37285 ft 442 kts 229°
2026-04-16 23:51 38.19999 -2.56855 37283 ft 442 kts 228°
2026-04-16 23:52 38.15764 -2.62518 37269 ft 442 kts 229°
2026-04-16 23:52 38.11528 -2.68180 37267 ft 442 kts 228°
2026-04-16 23:53 38.07290 -2.73826 37274 ft 442 kts 228°
2026-04-16 23:53 38.03050 -2.79457 37265 ft 441 kts 228°
2026-04-16 23:54 37.98806 -2.85079 37265 ft 441 kts 228°
2026-04-16 23:54 37.94561 -2.90693 37253 ft 441 kts 228°
2026-04-16 23:55 37.90321 -2.96301 37247 ft 441 kts 228°
2026-04-16 23:55 37.86073 -3.01902 37251 ft 441 kts 228°
2026-04-16 23:56 37.81827 -3.07506 37239 ft 441 kts 227°
2026-04-16 23:56 37.77591 -3.13101 37245 ft 440 kts 229°
2026-04-16 23:57 37.74327 -3.19557 37248 ft 436 kts 249°
2026-04-16 23:57 37.72990 -3.26975 37240 ft 434 kts 267°
2026-04-16 23:58 37.72592 -3.34580 37218 ft 435 kts 266°
2026-04-16 23:58 37.72382 -3.38390 36945 ft 435 kts 266°
2026-04-16 23:58 37.72168 -3.42206 36684 ft 435 kts 266°
2026-04-16 23:58 37.71953 -3.46020 36427 ft 437 kts 266°
2026-04-16 23:59 37.71739 -3.49850 36174 ft 438 kts 266°
2026-04-16 23:59 37.71521 -3.53696 35920 ft 439 kts 266°
2026-04-16 23:59 37.71298 -3.57542 35663 ft 440 kts 266°
2026-04-16 23:59 37.71073 -3.61402 34986 ft 443 kts 266°
2026-04-17 00:00 37.70852 -3.65250 34185 ft 447 kts 266°
2026-04-17 00:00 37.70626 -3.69196 33237 ft 452 kts 266°
2026-04-17 00:00 37.70400 -3.73125 32767 ft 446 kts 266°
2026-04-17 00:00 37.70173 -3.77010 32191 ft 442 kts 266°
2026-04-17 00:01 37.69947 -3.80868 31655 ft 439 kts 266°
2026-04-17 00:01 37.69720 -3.84701 31087 ft 436 kts 266°
2026-04-17 00:01 37.69492 -3.88514 30544 ft 434 kts 266°
2026-04-17 00:01 37.69264 -3.92297 29942 ft 431 kts 266°
2026-04-17 00:02 37.69038 -3.96049 29393 ft 427 kts 266°
2026-04-17 00:02 37.68815 -3.99762 28852 ft 422 kts 266°
2026-04-17 00:02 37.68593 -4.03446 28318 ft 418 kts 266°
2026-04-17 00:02 37.68373 -4.07091 27792 ft 415 kts 266°
2026-04-17 00:03 37.68155 -4.10705 27280 ft 411 kts 266°
2026-04-17 00:03 37.67936 -4.14290 26760 ft 408 kts 266°
2026-04-17 00:03 37.67717 -4.17851 26271 ft 406 kts 266°
2026-04-17 00:03 37.67498 -4.21396 25789 ft 403 kts 266°
2026-04-17 00:04 37.67277 -4.24915 25306 ft 401 kts 266°
2026-04-17 00:04 37.67054 -4.28417 24847 ft 400 kts 266°
2026-04-17 00:04 37.66834 -4.31905 24374 ft 398 kts 266°
2026-04-17 00:04 37.66611 -4.35388 23923 ft 397 kts 266°
2026-04-17 00:05 37.66389 -4.38856 23413 ft 396 kts 266°
2026-04-17 00:05 37.66167 -4.42306 22936 ft 393 kts 266°
2026-04-17 00:05 37.65946 -4.45740 22475 ft 391 kts 266°
2026-04-17 00:05 37.65728 -4.49145 22003 ft 388 kts 266°
2026-04-17 00:06 37.65513 -4.52530 21533 ft 386 kts 266°
2026-04-17 00:06 37.65296 -4.55897 21041 ft 384 kts 265°
2026-04-17 00:06 37.65076 -4.59247 20548 ft 382 kts 265°
2026-04-17 00:06 37.64856 -4.62579 20053 ft 380 kts 265°
2026-04-17 00:07 37.64634 -4.65901 19558 ft 379 kts 265°
2026-04-17 00:07 37.64411 -4.69203 19041 ft 377 kts 265°
2026-04-17 00:07 37.64192 -4.72443 18548 ft 375 kts 265°
2026-04-17 00:07 37.63972 -4.75714 17990 ft 373 kts 265°
2026-04-17 00:08 37.63754 -4.78965 17491 ft 369 kts 265°
2026-04-17 00:08 37.63538 -4.82175 16992 ft 366 kts 265°
2026-04-17 00:08 37.63324 -4.85354 16498 ft 362 kts 265°
2026-04-17 00:08 37.63111 -4.88504 16007 ft 359 kts 265°
2026-04-17 00:09 37.62901 -4.91632 15521 ft 356 kts 265°
2026-04-17 00:09 37.62690 -4.94732 15034 ft 354 kts 265°
2026-04-17 00:09 37.62480 -4.97810 14554 ft 351 kts 265°
2026-04-17 00:09 37.62269 -5.00867 14091 ft 349 kts 265°
2026-04-17 00:10 37.62057 -5.03909 13562 ft 347 kts 265°
2026-04-17 00:10 37.61847 -5.06921 13083 ft 343 kts 265°
2026-04-17 00:10 37.61637 -5.09902 12616 ft 340 kts 264°
2026-04-17 00:10 37.61431 -5.12856 12152 ft 337 kts 264°
2026-04-17 00:11 37.61227 -5.15789 11691 ft 334 kts 264°
2026-04-17 00:11 37.61023 -5.18694 11232 ft 331 kts 264°
2026-04-17 00:11 37.60819 -5.21579 10768 ft 329 kts 264°
2026-04-17 00:11 37.60441 -5.24400 10414 ft 321 kts 252°
2026-04-17 00:12 37.59611 -5.26883 10251 ft 297 kts 240°
2026-04-17 00:12 37.58513 -5.29037 9779 ft 288 kts 236°
2026-04-17 00:12 37.57416 -5.31101 9636 ft 284 kts 236°
2026-04-17 00:12 37.56326 -5.33146 9409 ft 287 kts 236°
2026-04-17 00:13 37.55204 -5.35250 8897 ft 291 kts 235°
2026-04-17 00:13 37.54081 -5.37352 8611 ft 287 kts 235°
2026-04-17 00:13 37.52973 -5.39422 8000 ft 285 kts 235°
2026-04-17 00:13 37.51867 -5.41493 7337 ft 285 kts 235°
2026-04-17 00:14 37.50767 -5.43554 6749 ft 282 kts 235°
2026-04-17 00:14 37.49680 -5.45590 6199 ft 278 kts 235°
2026-04-17 00:14 37.48603 -5.47607 5574 ft 277 kts 235°
2026-04-17 00:14 37.47533 -5.49612 5029 ft 274 kts 235°
2026-04-17 00:15 37.46476 -5.51596 4504 ft 273 kts 235°
2026-04-17 00:15 37.45407 -5.53596 4104 ft 275 kts 235°
2026-04-17 00:15 37.44345 -5.55576 3858 ft 271 kts 235°
2026-04-17 00:15 37.43298 -5.57525 3618 ft 267 kts 235°
2026-04-17 00:16 37.42324 -5.59467 3489 ft 258 kts 245°
2026-04-17 00:16 37.41863 -5.61595 3365 ft 249 kts 266°
2026-04-17 00:16 37.41840 -5.63044 3283 ft 242 kts 270°
2026-04-17 00:16 37.41842 -5.65777 3121 ft 230 kts 269°
2026-04-17 00:17 37.41842 -5.67116 3047 ft 223 kts 269°
2026-04-17 00:17 37.41838 -5.69640 2814 ft 215 kts 269°
2026-04-17 00:17 37.41836 -5.70905 2640 ft 213 kts 269°
2026-04-17 00:17 37.41833 -5.72765 2373 ft 212 kts 270°
2026-04-17 00:18 37.41830 -5.74572 2111 ft 200 kts 270°
2026-04-17 00:18 37.41827 -5.76260 1865 ft 187 kts 270°
2026-04-17 00:18 37.41824 -5.77831 1619 ft 169 kts 270°
2026-04-17 00:18 37.41822 -5.79211 1392 ft 150 kts 269°
2026-04-17 00:19 37.41811 -5.80482 1220 ft 143 kts 269°
2026-04-17 00:19 37.41791 -5.81720 1050 ft 141 kts 269°
2026-04-17 00:19 37.41789 -5.82948 852 ft 140 kts 270°
2026-04-17 00:19 37.41795 -5.84173 676 ft 140 kts 270°
2026-04-17 00:20 37.41796 -5.85377 492 ft 140 kts 270°
2026-04-17 00:20 37.41798 -5.86594 296 ft 139 kts 270°
2026-04-17 00:20 37.41799 -5.87813 125 ft 138 kts 269°
2026-04-17 00:20 37.41795 -5.88852 104 ft 87 kts 270°
2026-04-17 00:21 37.41796 -5.89348 100 ft 47 kts 270°
2026-04-17 00:21 37.41797 -5.89685 98 ft 24 kts 270°
2026-04-17 00:21 37.41856 -5.89806 97 ft 9 kts 334°
2026-04-17 00:21 37.41914 -5.89838 97 ft 11 kts 337°
2026-04-17 00:22 37.42048 -5.89909 96 ft 6 kts 338°
2026-04-17 00:22 37.42093 -5.89949 94 ft 9 kts 313°
2026-04-17 00:22 37.42129 -5.89995 94 ft 5 kts 315°
2026-04-17 00:23 37.42148 -5.90021 94 ft 2 kts 314°
2026-04-17 00:23 37.42156 -5.90031 94 ft 0 kts 314°